Wind_Speed
15 13 12 11 11 12 14 16 17 17 17 17 17 17 16 16 16 16 15 16 17 17 17 17 17 16 15 15 14 14 13 12 11 10 10 9 7 7 6 6 5 5 5 5 4 5 5 6 6 7 7 7 7 7 7 7 7 6 6 6 5 5 5
15 13 12 12 11 11 15 17 17 17 17 17 16 16 16 16 17 17 16 17 18 18 18 18 18 17 16 15 15 14 14 13 12 11 10 9 9 8 7 6 6 5 5 5 4 4 5 6 6 7 7 7 7 7 7 7 7 7 6 6 6 6 5
14 13 11 10 9 9 12 15 17 17 17 16 16 16 16 17 18 18 17 17 18 18 17 18 18 18 16 15 15 14 14 14 13 12 12 11 10 10 8 7 6 6 6 6 5 5 6 6 7 7 7 7 6 7 7 7 7 7 6 6 6 6 6
14 14 12 9 7 5 5 7 12 14 15 15 16 15 16 17 17 16 16 16 17 18 18 18 18 18 17 16 15 14 14 15 14 13 13 12 11 10 9 8 8 7 6 6 6 6 6 6 7 7 7 7 6 6 6 6 6 6 6 6 6 6 6
14 15 13 11 9 6 6 7 10 12 14 14 13 13 14 16 15 15 15 14 15 16 16 16 16 16 17 16 15 14 14 14 14 14 13 12 11 10 10 9 8 8 7 7 6 6 6 7 7 8 8 8 7 7 7 7 6 6 6 6 6 6 6
14 14 14 13 12 10 10 11 9 9 11 13 13 13 13 15 15 14 14 13 14 15 14 15 15 16 16 16 16 15 14 14 14 14 13 12 12 11 11 10 9 8 8 7 7 7 7 7 7 8 8 8 8 8 8 8 7 7 7 7 6 6 6
13 14 13 12 12 12 13 14 11 8 7 7 9 12 13 14 13 14 15 14 14 15 15 16 16 16 16 16 16 15 15 15 15 14 14 13 13 13 12 11 10 9 8 8 7 7 7 8 8 8 8 8 8 8 7 8 8 7 7 7 7 7 6
12 13 13 12 13 13 14 14 12 10 9 5 2 5 9 12 12 12 14 14 14 15 16 17 16 16 16 15 15 16 16 16 15 15 14 14 14 14 13 12 11 10 9 8 8 8 8 8 8 8 9 8 8 8 8 8 8 9 8 8 8 7 7
10 12 12 12 13 12 13 14 11 11 12 10 7 5 5 8 9 10 11 12 12 13 15 16 16 16 16 15 15 16 16 16 15 14 14 14 15 15 14 13 12 12 11 10 9 9 9 9 9 9 9 9 9 8 8 9 9 9 9 9 8 8 7
7 9 10 12 12 11 13 15 14 13 15 18 19 16 11 8 7 7 8 10 12 13 14 14 14 14 15 16 16 16 16 15 15 15 14 14 14 15 15 14 13 13 13 12 11 10 10 10 9 9 9 9 9 9 9 9 9 9 9 9 9 9 8
6 5 7 10 11 11 13 14 14 13 13 16 18 17 17 16 13 10 9 9 10 12 13 13 12 13 14 15 15 15 15 15 15 15 15 14 14 15 15 14 14 14 14 14 13 11 11 11 10 10 10 10 10 10 10 9 9 9 9 9 9 9 9
6 6 6 7 7 8 9 12 13 13 13 15 15 15 17 19 19 20 20 18 13 10 11 13 12 12 13 13 13 14 15 15 15 14 15 15 14 14 14 14 14 14 14 14 14 13 12 12 12 11 11 11 11 10 10 10 9 9 9 9 9 9 9
7 6 6 6 6 6 6 7 8 9 10 12 14 16 17 18 20 22 24 24 21 15 12 13 14 14 14 13 13 14 14 15 15 14 14 14 14 14 14 14 14 14 14 14 14 14 14 14 13 12 12 12 12 11 11 10 10 10 10 9 9 9 9
8 8 7 6 6 6 6 6 6 6 6 8 9 11 14 17 20 23 23 23 24 20 16 14 15 15 15 15 15 15 14 14 14 13 13 13 13 13 13 13 14 14 13 13 14 15 15 15 14 13 13 13 12 12 12 11 11 11 11 10 10 10 9
8 9 8 7 7 6 6 6 5 5 5 6 6 7 10 12 15 19 21 22 23 23 21 19 17 16 15 15 16 16 15 14 13 12 12 13 13 13 14 14 13 13 13 13 14 14 15 15 15 14 14 13 13 13 13 13 12 12 12 11 11 10 10
9 9 9 8 8 7 6 6 6 5 4 4 5 6 8 10 11 13 15 17 19 21 22 22 22 20 19 18 19 18 17 17 15 13 12 12 12 13 13 14 14 14 14 13 14 14 14 14 14 15 14 14 14 14 14 14 13 13 13 13 11 10 10
9 9 9 9 9 8 7 7 7 6 5 4 2 1 2 3 5 8 11 12 15 17 19 20 22 23 23 24 22 21 19 19 18 16 14 13 12 11 12 13 13 13 14 14 13 13 13 14 14 15 14 14 14 14 15 14 13 14 15 14 12 11 10
9 9 10 10 10 9 9 8 8 8 7 7 7 7 6 5 5 4 4 5 8 13 15 15 16 17 20 22 22 21 21 21 19 19 18 17 14 11 11 12 12 13 14 14 13 13 13 14 14 14 14 14 14 15 15 13 12 13 13 12 13 13 12
9 9 10 10 10 10 10 9 9 10 10 10 9 9 8 6 7 7 5 5 5 5 6 6 8 9 11 14 15 17 19 20 18 18 19 19 19 16 12 10 10 12 14 14 14 13 13 15 15 14 14 14 13 13 13 10 9 12 12 11 12 12 12
10 10 10 10 10 10 10 11 10 10 12 12 11 11 10 9 10 9 8 9 8 7 7 5 3 2 2 5 8 12 15 17 17 17 17 18 20 20 17 13 11 12 13 12 12 12 13 14 15 13 14 13 13 13 10 7 7 10 11 12 12 12 13
11 11 10 9 10 11 11 12 12 12 12 12 12 12 12 12 12 12 12 13 13 13 11 10 8 6 5 2 2 8 14 16 18 19 18 18 18 18 17 16 14 14 14 12 10 11 12 13 13 14 14 14 14 12 9 9 11 11 12 12 12 12 13
11 10 10 10 11 12 12 13 13 13 12 12 11 12 12 12 12 13 14 15 16 17 15 13 12 11 9 8 6 1 6 10 14 16 17 18 17 16 16 16 15 15 15 13 11 10 11 13 14 14 13 13 14 10 6 9 12 12 11 12 11 11 11
11 12 13 13 13 13 13 14 14 13 13 13 13 12 12 12 12 13 14 14 14 15 15 15 14 13 13 13 12 9 5 2 5 8 10 12 13 15 18 20 20 18 17 16 15 13 13 14 15 12 10 10 10 8 6 6 9 9 10 10 9 8 7
13 13 15 15 15 14 14 14 14 14 14 14 14 13 12 13 13 13 13 13 13 13 13 14 13 12 13 13 12 12 11 9 8 8 7 7 6 7 12 17 21 21 19 16 15 14 13 13 12 8 9 11 9 8 6 6 7 7 8 8 8 8 7
14 15 14 14 14 14 13 13 13 13 14 14 13 12 11 12 12 13 13 13 13 13 13 13 12 11 11 11 11 12 13 13 13 12 11 11 10 8 6 8 14 19 18 15 14 13 13 12 9 6 7 9 9 7 5 5 5 5 6 6 7 8 7
13 15 14 13 14 14 12 11 11 12 13 13 12 12 11 11 13 13 13 12 13 14 13 12 11 11 11 11 12 12 12 13 13 13 12 11 10 10 9 8 6 8 10 12 12 12 12 11 10 8 8 8 9 7 6 6 5 3 3 3 4 5 5
11 13 14 14 13 12 11 10 10 11 12 11 10 10 10 11 12 13 12 12 13 14 13 12 11 12 13 13 13 12 12 11 12 12 12 10 9 9 9 8 8 8 9 11 12 12 12 11 11 13 13 11 8 7 7 7 5 3 2 2 1 3 4
11 11 14 14 12 11 10 10 10 11 11 10 10 10 10 11 12 13 12 13 13 12 11 11 11 12 13 14 13 13 12 12 11 11 11 10 10 9 9 9 8 8 9 12 14 14 14 15 15 16 16 13 10 8 8 8 6 5 4 4 3 3 3
13 12 13 13 11 11 10 10 10 10 10 10 10 10 11 11 12 12 12 12 12 10 10 10 10 11 12 12 13 13 12 12 13 12 11 11 11 10 10 9 8 8 9 10 12 14 16 16 15 14 14 13 10 8 7 7 6 6 5 5 5 5 4
13 13 13 12 11 11 10 10 10 10 10 10 10 10 10 11 12 12 12 11 10 9 9 9 9 10 10 10 10 10 10 11 12 12 13 12 11 10 10 10 9 9 9 8 8 11 13 12 10 10 10 10 9 8 7 6 6 6 5 5 5 4 4
13 13 12 12 11 10 10 10 11 11 10 10 10 10 9 10 11 12 11 10 9 8 9 8 8 8 9 8 8 8 8 9 10 11 11 10 10 10 10 9 10 10 9 7 7 9 9 8 8 8 8 8 8 8 7 6 6 6 5 5 4 4 3
13 13 13 13 12 10 10 11 11 11 11 11 10 10 9 9 10 10 9 8 8 8 8 7 7 7 7 7 7 7 6 7 7 8 8 8 8 9 8 8 9 9 8 7 7 7 7 6 6 7 7 7 7 7 6 5 5 6 5 4 3 3 3
12 12 13 13 13 11 11 11 10 10 11 10 9 9 9 9 9 8 7 7 7 7 7 7 7 7 7 6 6 6 6 6 6 6 6 6 6 6 7 8 8 8 9 8 7 6 6 5 5 4 4 4 5 5 5 4 4 5 5 5 4 3 3
11 11 12 12 12 11 10 10 10 10 10 10 8 8 8 8 8 7 6 6 6 6 7 7 7 7 6 6 5 5 5 5 5 5 5 6 6 6 7 7 7 8 9 8 7 6 5 4 4 3 2 3 3 2 3 3 4 5 4 3 3 4 4
11 11 11 10 10 9 9 10 11 11 10 10 8 7 7 7 7 7 6 6 6 6 6 6 6 6 6 5 5 5 4 4 4 4 4 5 6 7 8 7 6 7 8 8 7 6 5 4 4 3 3 3 3 2 1 3 4 3 2 3 4 4 4
12 12 11 10 9 8 9 10 10 11 11 10 8 8 8 7 7 7 6 6 6 6 6 5 4 5 5 5 5 5 4 4 4 4 4 4 4 6 6 7 6 5 6 6 6 5 4 4 3 3 3 4 4 3 2 3 2 1 2 2 3 3 4
15 14 13 11 10 10 10 11 11 11 11 9 8 8 8 8 7 7 7 6 6 6 5 4 4 4 5 5 5 5 5 4 4 4 3 4 3 3 3 4 5 5 5 5 5 4 4 4 4 3 3 4 5 3 3 2 2 1 1 2 3 3 4
16 16 16 13 11 11 12 11 11 11 11 10 9 9 8 8 8 7 7 7 6 6 6 5 4 4 4 4 5 5 4 4 4 4 3 3 3 2 1 1 2 3 3 3 3 3 4 4 4 3 2 2 3 2 1 1 1 1 2 2 3 3 4
Wind_Direction
178 185 200 208 201 198 198 196 195 195 196 199 199 197 197 197 197 197 196 193 192 194 197 203 207 206 208 209 208 208 207 208 207 206 205 205 203 203 206 210 212 214 218 212 203 201 203 204 204 206 208 210 213 213 211 209 208 207 206 207 210 212 216
179 181 191 203 204 201 200 196 194 193 195 198 199 199 198 196 195 197 197 194 193 195 197 202 207 208 209 211 212 212 211 210 211 209 208 205 204 205 207 212 212 212 219 216 200 197 201 201 203 206 209 212 213 214 214 212 209 208 206 207 211 212 214
179 177 182 190 194 194 196 197 195 195 199 200 199 201 199 195 195 196 196 194 193 195 198 202 207 209 211 212 214 215 216 215 214 214 213 209 207 207 205 207 211 214 213 209 203 200 200 198 199 202 207 211 213 213 216 215 212 211 209 211 215 215 213
177 175 172 166 168 158 152 187 197 197 202 205 204 203 197 193 194 196 196 195 194 196 199 203 207 210 211 213 215 217 218 218 218 218 219 217 212 210 207 205 207 212 210 206 204 200 196 194 195 198 201 208 210 210 215 218 215 211 212 220 223 220 218
178 179 177 170 172 162 150 185 203 199 201 205 203 200 195 192 192 194 195 194 196 199 201 205 209 210 212 213 215 216 217 218 220 221 223 223 220 214 211 210 208 209 209 206 201 195 195 195 195 196 198 204 207 207 210 212 213 213 211 219 226 226 225
180 182 181 179 179 174 171 184 191 191 198 202 200 196 194 194 193 194 194 192 196 198 200 207 210 211 212 213 214 215 215 216 218 221 222 224 224 220 216 214 212 210 208 206 204 196 196 199 197 197 199 205 208 207 208 207 211 213 210 216 224 231 236
177 176 177 179 176 168 168 174 171 160 163 179 195 197 198 202 202 202 202 201 199 198 200 206 210 211 213 215 216 215 215 216 216 219 221 223 224 224 222 217 214 215 210 207 209 204 203 204 202 201 202 207 210 209 208 206 208 210 209 215 218 226 241
169 170 177 183 179 169 162 164 168 165 154 135 145 198 205 211 211 207 207 209 208 205 205 208 210 212 213 215 217 216 217 219 218 217 220 222 223 222 222 218 215 215 212 210 212 211 211 210 207 206 206 207 208 209 210 207 209 213 213 215 216 219 229
167 171 178 183 181 169 155 156 167 177 180 191 223 245 228 213 211 212 211 211 215 214 212 212 213 213 212 214 217 218 219 222 222 219 218 221 223 221 219 216 213 212 212 214 214 212 214 215 212 207 207 210 206 204 210 210 212 216 216 215 217 218 224
156 167 173 177 177 163 150 156 167 174 180 196 214 228 234 221 207 203 205 209 219 223 220 219 220 217 212 212 216 219 222 225 224 223 221 221 222 221 219 217 212 210 211 215 217 213 211 213 214 207 205 211 208 205 210 212 213 218 219 218 218 219 223
100 122 149 164 169 164 158 163 168 168 170 184 201 215 225 227 222 216 215 217 223 228 226 224 224 220 216 214 217 221 223 225 225 224 223 223 223 221 220 219 216 211 211 214 217 215 210 208 210 210 208 211 212 209 210 212 213 217 220 222 221 220 222
94 101 122 142 151 157 166 174 177 176 177 184 193 202 212 223 228 230 233 235 236 237 230 223 221 219 218 219 221 223 225 225 225 223 222 223 225 224 221 221 220 216 214 215 217 216 212 208 207 209 211 214 214 212 211 213 215 217 220 224 223 221 223
108 110 120 134 135 133 143 160 171 177 183 191 199 205 207 212 219 225 231 233 235 237 232 222 216 215 218 221 223 225 226 225 224 223 222 222 225 227 225 223 222 221 219 218 218 218 215 212 210 210 212 214 216 215 213 214 216 218 221 224 225 226 226
121 123 123 125 121 122 128 127 131 149 173 192 202 209 212 213 215 219 223 226 228 229 227 221 215 213 216 220 223 223 221 221 223 222 222 223 225 228 227 225 223 223 223 221 220 220 218 216 212 210 212 214 216 217 215 215 217 219 221 224 227 228 229
136 132 126 119 108 100 105 108 112 130 160 188 202 209 214 215 216 217 218 219 221 222 223 224 222 218 217 219 221 218 213 211 214 217 221 225 225 225 226 225 223 223 223 222 222 222 221 221 218 214 215 215 217 220 219 219 219 218 218 220 223 228 231
133 125 119 111 103 94 91 89 92 105 129 167 202 214 212 215 220 220 220 221 221 219 221 223 223 220 218 219 218 215 211 208 207 210 215 219 221 223 224 224 223 222 222 221 223 224 223 223 221 219 218 217 218 221 223 224 223 219 217 217 220 228 233
128 122 114 103 96 94 94 91 89 93 98 104 119 162 167 180 207 216 221 223 219 215 216 218 218 216 216 218 218 218 218 214 209 209 211 211 214 218 222 224 224 223 222 221 223 224 223 222 223 223 222 220 220 220 222 226 224 220 222 226 228 231 235
124 119 109 103 98 94 94 92 89 85 79 76 72 70 78 86 93 123 173 193 202 209 211 212 215 214 215 219 219 220 221 218 214 217 222 221 216 213 217 223 225 224 224 223 223 223 223 223 224 225 226 225 224 221 222 225 221 218 224 232 233 234 237
126 116 107 106 103 95 89 86 84 79 74 76 75 73 79 90 88 85 90 101 132 176 185 190 206 214 221 227 224 221 223 221 220 223 226 225 222 220 219 222 227 230 228 226 226 226 227 227 226 224 225 226 226 223 221 219 208 207 220 235 238 239 240
115 109 109 113 110 102 96 93 91 85 80 82 85 83 81 86 89 89 86 85 89 94 90 91 131 181 226 244 233 226 227 227 226 227 226 225 225 226 228 229 234 235 233 232 232 230 230 231 228 224 220 219 220 221 221 221 210 209 226 243 248 246 241
102 106 112 111 107 106 108 108 105 98 93 94 97 96 91 89 92 91 88 87 90 93 92 86 81 76 65 50 221 223 225 227 229 228 226 225 225 226 228 232 237 238 235 233 231 230 233 234 231 226 221 218 217 213 213 225 228 229 238 248 253 250 242
105 113 114 109 110 112 113 111 106 101 99 100 102 101 96 94 95 93 91 91 92 92 90 85 78 72 67 61 60 126 219 224 226 226 225 223 223 223 225 227 229 229 230 228 223 226 232 233 231 227 223 223 219 204 188 212 224 230 238 243 248 249 241
109 114 113 111 111 109 105 102 100 98 96 94 94 93 91 92 92 91 90 88 86 84 80 75 71 66 65 65 64 65 75 140 190 202 209 211 216 223 229 232 228 222 223 225 223 224 227 229 232 225 209 208 204 177 158 193 212 217 225 231 233 230 226
108 109 109 112 112 108 106 103 101 99 96 92 89 88 88 90 89 86 84 82 81 79 74 69 65 60 59 62 62 63 64 67 82 100 122 136 152 192 216 225 224 221 224 226 222 223 225 224 223 208 183 178 168 152 160 183 194 203 213 220 214 200 199
115 114 113 115 114 110 106 105 103 101 97 92 91 90 88 88 86 82 79 77 76 73 68 63 62 59 59 59 56 58 64 66 67 67 72 82 86 93 125 175 202 212 218 218 214 215 211 198 181 139 125 142 146 146 165 172 176 197 208 212 207 195 197
123 126 125 119 113 110 109 110 106 99 93 89 89 90 89 87 85 80 77 76 73 70 65 61 60 59 61 62 59 59 66 67 64 57 54 61 73 81 89 104 138 169 178 177 178 180 175 166 153 128 120 138 147 141 142 156 170 191 196 199 206 195 194
128 132 128 121 118 118 115 110 100 90 87 85 84 85 85 86 85 82 79 77 73 71 68 67 67 65 64 64 64 65 66 63 62 62 56 53 62 73 79 82 79 83 102 116 121 125 128 129 132 134 135 141 142 131 132 151 160 158 156 166 187 188 189
131 131 126 125 127 127 118 109 102 95 91 87 83 81 83 85 85 83 81 77 74 73 74 72 72 70 68 67 66 66 68 69 68 65 57 52 57 63 64 70 73 71 81 97 105 114 121 124 126 129 131 132 133 132 133 137 138 135 134 129 125 154 181
134 135 134 134 136 132 122 114 108 99 92 87 83 82 85 88 87 84 80 78 75 75 76 74 73 73 71 68 67 66 68 72 74 72 65 58 58 62 63 66 70 69 74 92 111 120 122 122 123 124 125 125 124 123 122 123 126 127 125 124 126 134 137
140 142 143 142 138 132 124 118 111 101 95 90 85 83 86 90 93 90 84 81 78 75 76 74 73 74 72 69 69 68 66 67 69 72 72 67 62 63 64 67 74 75 71 77 95 106 109 113 113 111 113 113 109 102 98 104 113 111 106 106 104 106 117
145 146 144 138 133 131 127 122 117 110 103 96 92 90 90 92 95 93 88 86 83 79 76 74 72 72 71 70 69 69 70 70 68 68 69 68 67 66 62 63 71 71 68 78 93 97 101 105 103 103 108 110 108 107 103 101 104 100 91 85 77 67 56
148 148 146 140 137 137 133 126 122 116 109 103 100 97 96 95 94 92 91 90 88 83 81 80 77 74 70 69 68 66 69 75 76 75 72 68 70 69 62 61 70 68 63 76 93 101 107 112 109 110 116 116 116 119 116 104 93 87 80 70 58 45 24
149 149 149 146 143 143 139 131 125 119 112 105 102 100 101 101 98 95 96 93 87 86 87 85 84 81 76 73 69 64 64 65 67 72 75 70 69 69 60 56 62 64 59 59 70 83 100 117 124 124 126 124 122 122 122 109 82 69 64 55 38 20 17
148 145 145 146 146 147 144 137 131 125 118 111 107 105 104 102 99 97 97 90 84 85 86 85 85 85 83 81 77 70 66 66 66 67 71 69 63 59 57 52 51 55 53 49 56 68 77 90 100 102 103 105 100 107 131 117 76 50 41 33 11 357 3
149 145 144 146 149 149 143 137 135 131 125 121 119 116 112 108 106 103 98 92 89 89 86 85 87 88 86 86 83 79 74 72 68 64 67 75 75 67 60 53 53 62 59 51 53 65 75 79 74 56 51 63 56 46 97 96 65 35 9 356 342 337 343
154 152 149 149 148 147 143 141 140 134 129 127 127 126 123 118 114 111 107 102 99 95 89 85 85 84 81 74 67 64 63 66 65 57 49 59 78 83 75 63 60 68 70 63 57 57 66 79 78 67 72 76 62 44 67 94 81 14 339 343 331 327 330
164 160 159 159 159 158 153 150 147 140 135 134 135 133 130 126 122 119 113 109 104 98 92 86 82 77 71 64 57 49 42 48 59 57 47 41 48 67 84 81 70 61 58 60 60 56 53 56 57 61 91 105 94 65 45 75 96 26 336 321 314 319 325
169 167 167 167 165 162 159 157 154 148 143 143 143 142 139 134 131 126 118 110 104 97 93 91 92 87 75 65 59 49 39 45 53 51 50 49 42 34 42 96 104 99 88 64 42 37 36 34 38 43 54 102 124 113 46 17 10 343 330 317 316 325 327
Height
807 810 811 810 808 810 811 813 817 820 824 827 828 831 833 836 838 840 842 843 845 847 850 852 854 856 857 858 860 861 863 864 866 867 868 869 870 870 871 872 872 873 873 874 874 875 876 876 877 878 879 879 880 880 881 881 881 882 882 883 883 883 883
804 808 809 809 809 810 810 812 816 819 822 824 827 829 831 834 837 838 840 842 844 846 848 851 853 854 856 857 859 860 862 863 865 866 867 867 869 869 870 871 871 872 873 873 874 874 875 875 876 877 878 879 879 880 880 880 881 881 882 882 882 883 883
801 805 807 809 809 810 811 812 815 817 819 822 825 828 830 832 835 837 839 840 842 845 847 849 851 853 855 856 858 859 861 862 864 865 866 866 867 868 869 870 871 871 872 872 873 874 874 875 875 876 877 878 879 879 880 880 880 881 881 882 882 882 883
799 802 804 808 809 811 812 812 815 816 818 821 823 826 828 831 834 836 838 840 841 843 845 848 850 852 854 855 856 858 859 861 862 864 865 865 866 867 868 869 870 870 871 871 872 873 873 874 875 875 876 877 878 878 879 879 880 881 881 882 882 882 882
797 799 803 807 809 811 812 814 816 816 818 820 822 826 828 830 833 835 837 839 840 843 844 847 849 850 852 853 855 856 858 860 861 862 864 864 865 866 867 868 868 869 870 871 871 872 873 873 874 874 875 876 876 877 878 879 879 880 880 881 881 882 882
795 797 800 804 807 810 812 815 817 816 819 820 822 825 827 829 832 833 836 838 839 842 844 845 847 849 850 852 853 854 856 858 859 861 862 863 864 865 865 866 867 868 869 870 870 871 872 872 872 873 874 874 875 876 877 877 878 879 879 880 881 881 881
792 794 798 801 804 806 810 814 816 817 819 820 822 825 827 829 831 832 835 836 838 840 842 844 845 847 849 850 851 853 854 856 857 859 860 861 863 864 864 865 866 867 868 869 869 870 871 871 871 872 873 873 874 874 875 876 877 878 878 879 879 880 880
789 793 797 799 801 804 807 812 816 818 819 821 823 825 827 829 830 831 833 834 837 838 840 842 843 845 847 848 850 851 852 854 855 857 858 859 861 862 863 864 865 866 867 867 868 869 870 870 871 871 871 872 873 873 874 875 875 876 877 877 878 879 879
789 792 795 797 800 803 807 812 817 820 821 823 825 826 828 830 830 831 832 834 836 837 838 840 842 844 845 847 848 849 851 852 853 854 856 857 858 859 860 862 863 864 865 866 867 867 869 869 870 870 871 871 871 872 873 873 874 875 875 876 877 877 877
792 794 795 797 799 803 808 813 816 819 822 824 825 826 829 830 830 831 832 833 835 836 838 839 841 843 844 845 847 848 849 851 852 853 854 855 856 857 858 859 860 862 863 864 865 865 867 868 868 869 870 870 871 871 871 872 873 873 874 874 875 875 876
799 798 798 799 801 804 808 813 816 819 822 824 825 827 828 830 830 830 831 833 834 835 837 838 840 842 843 844 845 846 847 849 850 851 852 853 854 855 856 857 858 859 861 862 862 863 864 866 867 868 869 869 870 870 870 871 871 872 872 873 874 874 875
805 803 803 803 804 806 809 811 815 818 821 823 825 827 828 829 829 829 830 832 834 835 836 837 839 840 842 843 844 845 846 847 848 849 850 851 852 853 854 855 856 857 859 860 861 861 862 864 865 866 867 868 868 869 869 870 870 871 871 872 872 873 873
808 807 808 807 807 809 811 812 814 816 819 821 823 825 826 827 827 828 829 830 832 834 835 836 837 838 840 841 842 843 844 845 846 847 849 850 851 852 853 854 855 856 857 858 859 860 860 861 863 864 865 866 867 867 868 868 869 869 870 870 871 871 872
808 809 809 809 810 811 812 814 815 816 818 819 821 822 823 824 825 826 827 828 830 832 833 834 835 836 837 838 840 841 842 843 845 846 847 848 849 850 851 852 853 854 855 856 857 858 859 859 861 862 863 864 865 865 866 866 867 867 868 869 870 870 871
807 807 809 810 811 812 812 814 815 816 817 818 819 820 821 822 823 823 825 826 828 829 831 832 833 834 835 836 838 839 840 841 843 844 846 847 848 849 850 851 852 852 854 855 856 857 857 858 859 860 861 862 863 863 864 864 865 865 866 867 868 869 870
805 806 809 810 812 813 814 814 815 816 816 816 817 819 820 821 821 823 824 826 828 829 829 831 831 832 833 834 836 837 838 839 840 841 843 845 846 847 848 849 850 851 852 853 854 855 856 857 857 858 859 860 861 862 862 862 862 863 864 865 866 868 868
805 807 810 811 813 814 815 816 816 816 816 816 817 818 819 820 821 823 825 827 829 829 828 829 829 829 831 832 833 835 836 837 838 839 841 842 844 845 847 848 849 850 851 852 853 854 855 856 856 856 857 858 858 859 860 860 860 861 862 864 865 866 867
807 809 811 814 816 816 817 818 818 819 819 819 819 819 820 821 821 823 825 827 828 828 828 829 829 829 830 830 832 833 834 835 837 838 840 840 842 843 845 846 847 848 849 850 851 852 853 854 855 855 856 856 856 857 857 858 858 859 861 862 863 864 865
809 811 813 817 818 818 819 820 821 822 822 822 822 822 822 822 823 824 824 825 827 827 827 827 828 829 829 830 831 832 833 834 836 838 839 840 841 842 844 845 846 847 848 849 850 851 852 853 853 854 855 855 855 855 856 856 856 857 859 860 861 862 863
811 814 817 818 818 820 822 823 824 825 825 825 825 825 825 825 824 825 825 825 826 826 827 827 827 827 828 829 830 831 833 834 835 836 838 839 840 841 842 844 845 846 847 848 849 850 851 851 852 852 853 853 854 854 855 855 855 856 857 859 859 860 861
815 818 820 820 820 822 824 824 825 826 826 826 826 826 827 827 827 827 827 827 827 827 828 828 828 828 829 829 830 830 831 832 832 834 835 837 839 840 841 842 843 845 846 847 848 848 849 850 850 851 851 851 852 853 853 853 853 855 856 857 858 858 859
818 820 821 822 822 824 824 824 825 826 827 827 826 827 828 828 828 829 829 829 829 828 829 829 829 830 830 830 831 831 830 830 831 832 834 835 837 838 839 840 841 843 844 845 846 847 848 848 849 849 849 850 850 851 851 851 852 853 854 855 856 857 857
817 819 821 823 825 825 826 827 827 828 828 828 828 829 829 830 830 830 830 831 831 830 830 830 830 831 831 831 832 832 831 831 831 832 833 834 835 836 837 838 839 841 841 842 843 844 845 847 847 847 847 848 849 850 850 850 851 852 853 853 854 855 856
818 820 822 825 827 828 829 830 830 830 830 830 830 831 832 832 832 832 832 833 833 833 833 832 832 832 832 833 833 833 833 833 833 833 833 834 834 835 835 836 837 838 839 840 841 842 844 845 846 846 845 845 847 849 850 850 851 851 852 852 853 854 855
818 822 825 826 828 829 830 831 832 832 832 832 832 833 834 834 834 833 834 834 834 835 835 834 835 835 835 835 834 833 833 834 834 835 835 835 835 835 835 836 836 837 839 840 840 841 843 843 844 846 846 847 849 851 851 851 851 851 851 852 852 853 854
820 823 825 827 829 831 832 833 833 833 833 834 834 835 835 836 836 835 836 836 836 836 837 837 838 837 837 837 836 835 835 835 836 837 837 837 837 837 837 838 838 838 839 839 839 840 841 841 842 845 848 849 851 852 851 851 851 851 851 852 852 853 854
823 824 826 829 831 833 834 835 835 835 836 836 837 837 837 838 838 838 838 838 838 839 839 840 840 840 839 839 838 838 837 837 838 838 839 840 839 840 840 840 841 841 840 839 840 840 841 842 843 845 848 850 851 852 851 851 851 851 851 852 852 853 854
826 827 830 832 834 835 836 836 837 838 838 838 839 839 840 840 840 840 841 840 840 841 841 842 842 842 842 841 841 840 840 839 839 839 840 841 840 841 842 843 843 843 842 842 842 842 842 843 844 846 848 850 851 852 851 851 851 851 851 852 852 853 854
828 831 833 834 836 837 837 838 839 839 839 840 841 841 842 842 843 843 843 843 843 843 843 844 844 844 844 844 844 843 843 843 842 842 842 841 841 842 844 844 845 844 844 845 844 844 844 845 846 848 849 850 852 852 852 852 852 852 852 852 853 853 853
829 832 833 835 836 838 839 840 840 841 842 842 843 843 844 845 845 845 846 846 846 846 845 845 845 845 845 845 846 846 845 845 845 844 844 844 844 844 845 846 846 845 845 846 846 846 846 847 848 850 851 851 853 854 854 854 853 853 853 853 854 854 854
830 832 834 835 838 840 841 841 842 842 843 844 845 846 846 846 847 847 848 848 848 848 847 847 847 847 847 847 847 847 847 847 847 847 847 847 847 847 847 848 848 847 847 847 847 848 849 850 850 851 852 853 854 855 856 855 854 854 853 853 853 854 855
831 833 835 837 839 841 841 842 843 843 844 845 846 847 847 848 849 849 849 850 849 849 849 849 849 849 849 849 849 848 848 848 848 849 849 849 850 850 850 850 850 850 850 850 850 850 851 851 852 853 854 854 855 856 856 855 854 853 853 852 853 854 855
833 835 836 838 840 841 842 842 843 844 845 846 847 848 849 849 849 850 851 851 851 851 850 850 850 850 850 850 850 850 850 850 850 850 850 850 851 851 851 851 852 852 852 852 852 852 852 853 853 854 854 854 855 855 855 855 854 853 852 853 854 855 856
836 837 838 839 841 842 843 843 844 845 846 847 848 849 850 850 851 851 852 852 852 852 851 851 851 851 851 852 852 852 852 852 852 851 851 852 852 852 852 852 852 853 853 853 853 854 854 854 854 854 854 854 855 855 855 854 854 853 853 853 855 855 856
837 838 839 841 842 843 843 844 846 846 847 849 849 850 851 851 852 852 852 853 853 852 852 852 852 852 852 852 852 852 853 853 853 853 853 853 853 853 853 853 853 854 854 854 854 854 854 855 855 856 855 855 856 855 855 854 855 854 854 855 855 856 856
837 838 840 842 843 844 845 846 847 847 848 849 850 851 852 852 853 853 854 854 854 853 853 853 852 852 852 852 853 853 853 853 853 854 854 854 853 854 854 854 854 854 855 855 855 855 855 855 856 856 856 856 856 855 855 855 856 856 856 856 856 857 857
835 838 840 843 844 845 846 847 847 848 849 850 851 851 852 852 853 854 855 855 855 854 854 854 853 853 853 853 854 854 854 854 854 855 855 854 854 854 854 854 855 855 855 855 856 856 856 856 856 856 856 856 856 856 856 856 856 856 856 856 856 856 856
835 837 840 842 844 846 847 847 848 848 849 850 851 852 852 853 854 854 855 855 855 855 855 855 855 854 854 855 855 855 855 856 855 856 856 856 855 855 855 854 854 855 855 856 856 856 856 856 856 856 856 856 856 856 856 856 856 856 856 856 856 856 855